User: anonymous   Login
Location: Unspecified
(38.0989°N, 0.6729°W)
Time: 17:54:10
(UTC+01:00)
Language:

Mayak - Orbit

View from above orbital plane
View from above orbital plane
View from above satellite
View from above satellite

Ground track
Ground track

The orbit data is extracted from the following two-line orbital elements,

1 42830U 17042F   18053.42602820  .00000704  00000-0  76380-4 0  9991
2 42830  97.6068 320.1260 0013351 214.5909 145.4443 14.91122353 33239
Epoch (UTC): 22 February 2018 10:13:28
Eccentricity: 0.0013351
inclination: 97.6068°
perigee height: 585 km
apogee height: 604 km
right ascension of ascending node: 320.1260°
argument of perigee: 214.5909°
revolutions per day: 14.91122353
mean anomaly at epoch: 145.4443°
orbit number at epoch: 3323

The dashed part of the orbit path shows where the satellite is in the earth's shadow,  

DLR